Wind_Speed
33 33 34 35 33 33 34 33 32 31 31 31 29 27 24 22 21 20 19 18 18 19 21 23 26 29 32 35 37 38 38 38 38 38 37 36 36 35 35 34 35 35 34
32 34 35 35 36 36 36 34 33 31 30 29 26 23 19 17 16 15 13 12 13 14 16 18 21 24 28 32 35 38 39 40 40 40 39 37 35 34 33 33 33 33 34
32 34 36 38 38 38 37 35 33 32 30 27 23 19 15 13 12 12 12 13 13 14 16 18 20 22 25 28 32 36 38 40 41 42 41 39 37 35 34 33 32 32 32
34 37 38 40 40 39 36 34 34 33 30 26 23 19 16 15 15 16 17 17 17 17 18 20 21 23 26 29 31 34 37 38 40 42 42 41 39 37 35 33 32 32 33
38 39 39 39 38 37 36 35 35 34 30 27 24 22 20 21 21 22 22 22 21 19 19 21 22 24 26 29 31 33 35 37 38 40 42 42 41 38 36 34 33 33 34
35 36 36 35 35 34 34 35 35 33 30 28 27 26 25 26 27 27 27 26 23 21 21 22 24 25 27 30 32 32 32 34 36 38 40 41 41 40 38 36 35 34 34
28 31 32 33 32 32 34 34 34 32 31 30 30 30 29 29 30 30 29 27 26 24 23 24 25 27 28 30 32 32 32 32 32 33 35 38 39 39 39 37 35 35 34
27 30 32 32 33 33 34 35 35 35 34 34 33 33 33 32 31 31 30 29 28 26 25 25 26 27 28 29 32 33 32 31 30 30 31 33 36 38 38 37 36 35 35
30 32 33 35 36 36 37 38 39 39 39 39 38 37 36 35 34 33 33 32 31 29 27 26 27 27 27 29 31 33 33 31 29 28 28 30 32 35 37 36 36 35 35
36 37 38 39 40 42 43 44 45 46 46 46 45 43 42 40 39 38 37 36 35 32 30 28 27 27 27 28 30 32 33 31 28 27 26 27 29 32 34 35 36 36 36
41 42 43 44 46 47 48 49 50 51 51 51 51 50 48 46 44 43 41 40 38 35 32 30 28 28 28 28 30 32 33 32 29 27 26 26 28 30 32 34 35 36 37
43 45 47 49 50 51 52 53 54 55 56 56 56 56 55 52 50 48 45 43 41 38 34 32 31 31 30 30 31 32 33 32 30 28 27 26 26 28 30 32 33 34 34
44 47 49 50 52 53 54 55 56 58 60 61 62 61 61 59 56 54 52 48 44 40 37 35 33 33 33 33 33 34 33 33 31 29 27 26 24 25 26 28 28 29 31
46 48 50 52 54 56 58 60 61 62 64 66 67 67 67 67 64 62 59 54 48 43 40 38 37 37 36 36 35 35 35 33 30 28 27 24 22 21 21 23 23 24 25
51 52 54 56 59 62 65 67 69 70 72 74 76 76 76 75 71 66 61 58 53 48 44 42 41 41 40 39 37 36 35 33 30 27 25 22 19 18 18 19 20 23 25
62 65 66 67 69 70 72 74 76 77 76 78 79 78 75 74 73 69 65 62 58 54 50 47 46 44 43 42 40 37 36 33 30 26 23 20 19 17 18 19 20 23 27
72 76 78 80 81 82 82 84 85 85 86 86 87 87 86 84 83 81 78 74 68 62 57 54 51 49 46 44 41 37 35 33 30 26 23 20 19 18 18 19 21 23 25
79 80 81 81 80 78 77 77 78 79 82 84 87 89 90 89 86 84 82 78 73 67 62 56 52 49 47 44 40 38 36 33 30 27 24 21 20 19 19 20 21 23 25
75 70 65 60 55 52 50 49 49 50 52 55 59 62 66 69 69 69 70 69 67 65 62 58 53 49 47 44 40 39 37 34 31 29 25 23 21 20 20 20 21 22 23
52 45 40 38 37 38 39 40 40 40 40 41 42 42 42 43 44 47 51 54 57 58 56 54 51 48 45 43 41 39 38 35 32 30 27 24 22 21 20 20 21 21 21
35 35 36 39 41 42 43 43 44 44 44 44 43 41 38 36 34 34 36 41 46 50 52 52 50 48 45 44 43 41 38 36 33 31 29 25 23 21 21 21 22 22 21
37 40 42 43 44 45 46 46 47 47 48 48 46 43 39 34 30 28 29 31 35 41 47 51 53 52 49 46 45 42 38 36 34 31 28 25 23 22 22 23 23 23 23
43 45 46 46 47 48 49 49 49 50 50 50 48 45 42 37 32 27 26 27 28 31 36 45 53 56 52 49 48 45 40 37 34 31 28 24 22 22 24 24 24 24 23
46 49 49 49 50 51 52 53 52 51 51 51 48 45 42 39 35 30 26 24 24 25 28 33 45 55 53 49 47 46 42 36 32 30 27 24 22 22 24 25 25 24 24
50 51 52 52 52 52 53 53 52 51 51 48 46 45 43 40 37 32 28 25 24 24 26 29 37 47 47 45 43 42 39 34 30 28 26 24 22 22 23 22 22 22 22
53 54 54 54 53 52 51 49 49 48 47 44 41 40 41 40 38 34 30 27 26 26 27 30 33 38 40 39 39 38 37 33 30 28 27 25 24 23 23 22 21 21 20
Wind_Direction
268 273 275 281 289 295 297 296 294 291 291 292 293 291 289 287 285 284 285 289 294 298 298 297 295 291 288 285 283 280 278 277 277 276 275 275 275 276 275 272 268 265 262
269 273 278 284 289 292 294 293 290 290 291 291 289 287 284 281 279 279 285 294 302 307 308 308 306 302 296 290 285 280 277 274 273 273 273 273 274 275 274 271 268 264 259
269 273 279 282 286 290 290 290 289 290 292 291 289 286 281 275 273 276 287 295 301 306 311 315 316 316 312 304 295 287 281 275 272 271 270 270 270 270 271 271 268 263 259
270 273 275 279 283 286 287 288 289 291 291 291 291 289 281 274 273 277 284 292 298 306 313 318 321 323 322 317 307 296 287 280 275 271 269 269 269 267 267 267 265 263 261
265 267 271 273 277 279 282 286 288 289 290 290 290 288 281 276 276 278 284 291 296 303 311 317 319 322 324 324 316 303 291 283 277 273 270 267 267 266 264 264 263 262 262
262 263 264 266 271 276 281 285 287 288 288 289 289 286 282 279 278 279 282 285 290 298 306 311 315 318 323 325 323 315 301 290 280 274 270 268 265 264 262 261 262 263 263
268 269 268 269 273 277 280 283 284 285 286 286 286 284 282 281 280 280 280 281 285 291 299 305 309 313 319 325 327 323 314 302 289 278 271 267 264 261 260 259 260 262 263
279 279 277 278 280 280 280 282 283 283 282 281 281 280 281 281 281 281 282 282 284 288 293 299 303 307 312 320 327 327 320 311 299 286 275 268 263 259 257 257 259 261 263
284 283 280 279 280 279 280 282 282 282 280 278 276 276 277 279 280 280 281 282 284 287 290 294 298 300 307 315 322 326 323 316 307 294 282 272 264 259 256 256 258 260 260
281 281 279 277 277 278 279 280 280 280 279 278 277 276 276 277 279 280 280 281 283 285 287 290 292 296 302 311 319 323 323 319 312 302 290 278 268 261 256 256 257 257 257
278 279 278 278 277 278 278 278 278 278 278 278 278 278 278 278 278 279 280 279 280 280 282 285 289 292 298 306 313 319 321 318 313 306 296 283 272 263 258 256 255 255 256
277 276 276 276 276 275 276 276 276 276 276 276 276 277 278 278 278 278 279 279 278 277 278 281 285 288 293 300 308 313 316 315 313 307 300 290 276 265 258 254 254 254 253
283 281 279 278 277 276 276 276 276 275 275 274 274 274 275 275 276 276 276 276 276 275 275 278 282 285 289 295 302 307 310 310 309 306 302 295 282 268 258 253 251 250 249
287 285 283 282 280 279 278 278 278 278 277 275 273 272 272 272 272 273 272 270 269 270 272 275 279 282 286 291 297 301 303 303 303 302 300 296 286 271 258 251 247 246 243
291 289 286 284 282 280 278 276 274 273 273 271 268 266 265 264 264 264 263 263 263 265 267 271 276 279 282 287 292 295 295 296 296 297 297 293 285 272 261 254 249 247 241
292 290 286 283 279 276 273 271 270 267 265 264 263 263 262 260 261 260 262 263 264 267 268 271 274 276 279 282 286 287 287 287 287 289 290 288 280 269 261 252 248 248 240
290 288 286 284 282 280 277 275 274 273 271 269 268 268 267 267 268 269 269 270 270 271 270 270 270 272 274 276 278 278 277 277 277 278 280 278 276 268 263 256 252 249 243
292 290 289 288 288 287 286 284 282 280 278 276 274 273 272 271 271 271 272 271 271 269 268 266 265 265 267 268 269 269 268 267 267 268 269 269 266 262 259 255 252 247 244
299 298 298 298 298 297 295 294 293 291 289 285 282 279 277 275 273 271 269 267 266 264 262 260 258 257 257 258 259 259 259 258 257 258 259 260 259 256 253 251 248 243 237
306 307 307 307 306 306 304 304 302 301 299 297 294 292 288 283 277 271 265 261 257 253 250 248 245 244 244 246 247 249 249 249 249 250 251 252 252 249 247 244 241 236 229
315 315 313 311 309 306 304 302 299 296 294 292 291 290 290 287 282 276 269 260 252 245 238 233 229 227 229 233 237 239 240 241 242 244 245 246 246 242 239 235 230 226 222
315 313 311 309 307 305 303 301 299 295 292 289 285 282 281 281 281 278 270 263 254 244 234 226 218 214 216 222 228 230 231 233 236 239 241 243 240 236 231 227 223 221 217
315 313 310 309 307 304 302 300 298 295 291 287 282 277 273 271 272 273 270 263 256 247 236 226 216 210 209 214 221 223 225 227 229 233 236 236 234 229 225 220 217 216 209
317 315 312 309 308 305 302 300 298 296 293 288 280 272 266 263 262 262 263 260 253 245 233 223 215 210 207 207 214 218 220 221 222 225 227 227 226 223 220 215 211 207 200
320 318 315 312 309 305 303 300 298 296 294 289 280 268 259 254 251 251 252 251 245 238 225 219 216 215 213 207 207 211 212 211 212 217 218 218 216 214 206 201 198 194 189
321 319 317 315 313 309 306 303 301 299 295 289 279 265 254 246 242 241 241 241 237 231 224 220 218 218 217 211 205 203 200 198 204 208 208 207 204 198 191 186 185 186 188
Height
5880 5879 5877 5875 5873 5870 5868 5865 5862 5859 5856 5854 5851 5848 5846 5844 5842 5840 5838 5837 5836 5834 5832 5830 5828 5826 5824 5822 5820 5818 5816 5815 5813 5812 5812 5812 5812 5812 5813 5813 5813 5815 5817
5875 5873 5870 5868 5865 5863 5860 5857 5855 5852 5850 5848 5845 5842 5839 5837 5836 5835 5833 5832 5830 5828 5826 5824 5821 5819 5816 5814 5812 5809 5808 5807 5805 5804 5804 5804 5805 5805 5805 5804 5805 5806 5808
5868 5866 5863 5860 5857 5855 5852 5850 5847 5845 5843 5840 5838 5835 5833 5832 5831 5830 5829 5827 5825 5823 5820 5818 5815 5813 5810 5807 5803 5800 5798 5797 5796 5795 5795 5795 5797 5797 5797 5797 5797 5797 5799
5860 5857 5854 5851 5849 5847 5844 5842 5840 5838 5836 5833 5831 5829 5827 5826 5825 5824 5823 5821 5819 5817 5814 5812 5809 5806 5803 5799 5795 5791 5788 5786 5785 5784 5784 5785 5786 5788 5789 5790 5790 5790 5790
5850 5847 5845 5843 5841 5839 5837 5835 5833 5831 5829 5827 5825 5823 5822 5821 5820 5818 5816 5814 5812 5810 5808 5805 5803 5800 5797 5793 5788 5783 5778 5775 5774 5773 5773 5775 5776 5777 5779 5781 5782 5782 5782
5840 5837 5835 5834 5833 5831 5829 5827 5825 5823 5822 5820 5818 5817 5816 5815 5814 5812 5810 5808 5805 5803 5801 5798 5796 5793 5790 5786 5781 5775 5770 5766 5764 5762 5762 5764 5766 5768 5769 5771 5773 5774 5774
5834 5831 5828 5826 5824 5823 5822 5820 5818 5816 5814 5813 5812 5810 5809 5807 5806 5805 5803 5801 5799 5796 5794 5791 5789 5786 5783 5779 5774 5768 5762 5758 5755 5753 5752 5753 5755 5757 5759 5761 5763 5764 5765
5829 5827 5824 5821 5819 5816 5814 5812 5810 5808 5807 5806 5804 5803 5801 5798 5797 5795 5794 5793 5791 5788 5786 5783 5781 5778 5775 5772 5767 5761 5756 5751 5747 5745 5743 5743 5745 5747 5749 5751 5754 5755 5757
5822 5820 5817 5814 5811 5808 5806 5803 5801 5799 5797 5796 5795 5793 5791 5789 5787 5786 5784 5783 5781 5779 5777 5775 5772 5770 5767 5764 5760 5755 5750 5745 5741 5738 5736 5735 5735 5737 5739 5742 5744 5746 5747
5814 5811 5808 5805 5802 5799 5796 5793 5791 5788 5786 5784 5783 5782 5781 5779 5777 5775 5774 5772 5770 5769 5767 5765 5763 5761 5758 5756 5752 5749 5744 5739 5735 5731 5729 5727 5727 5728 5730 5732 5734 5736 5738
5804 5800 5797 5794 5790 5787 5784 5781 5779 5776 5774 5771 5769 5768 5767 5766 5765 5763 5762 5760 5759 5757 5756 5755 5753 5751 5750 5747 5744 5741 5738 5734 5729 5725 5722 5720 5719 5719 5720 5722 5724 5726 5728
5793 5789 5785 5781 5777 5773 5770 5767 5764 5761 5758 5756 5754 5752 5750 5750 5749 5749 5748 5747 5746 5745 5745 5744 5743 5742 5740 5739 5737 5734 5731 5727 5723 5719 5716 5713 5711 5710 5711 5713 5715 5717 5719
5780 5775 5771 5766 5762 5758 5754 5750 5747 5743 5741 5738 5735 5733 5732 5731 5731 5732 5732 5732 5732 5732 5732 5731 5731 5731 5731 5730 5728 5726 5724 5721 5717 5713 5709 5706 5704 5703 5703 5704 5706 5708 5710
5765 5759 5754 5749 5744 5740 5735 5731 5727 5723 5720 5717 5715 5713 5712 5711 5711 5712 5714 5715 5716 5717 5718 5719 5719 5719 5720 5719 5719 5718 5716 5714 5711 5707 5703 5700 5697 5696 5697 5698 5700 5701 5703
5749 5742 5737 5731 5726 5720 5715 5710 5706 5702 5699 5696 5693 5691 5690 5690 5690 5691 5693 5696 5698 5701 5703 5704 5706 5707 5708 5709 5709 5708 5707 5706 5704 5701 5697 5694 5692 5691 5691 5692 5694 5695 5697
5731 5724 5717 5711 5705 5699 5693 5687 5683 5679 5675 5673 5670 5666 5665 5665 5666 5668 5671 5674 5678 5682 5686 5689 5692 5694 5696 5697 5698 5698 5698 5697 5696 5694 5691 5689 5687 5686 5687 5687 5688 5690 5692
5711 5701 5692 5684 5678 5672 5666 5661 5657 5653 5650 5647 5645 5642 5641 5641 5642 5644 5647 5651 5655 5661 5667 5672 5676 5679 5682 5684 5686 5687 5688 5688 5688 5687 5685 5683 5682 5682 5682 5683 5684 5685 5687
5683 5673 5664 5655 5648 5642 5636 5632 5628 5624 5620 5618 5616 5614 5613 5614 5615 5618 5620 5625 5631 5638 5646 5652 5658 5663 5667 5670 5673 5675 5677 5678 5679 5679 5678 5677 5677 5677 5678 5679 5680 5681 5682
5655 5645 5637 5630 5624 5618 5613 5608 5605 5600 5596 5592 5589 5587 5586 5586 5588 5590 5594 5598 5605 5613 5621 5631 5639 5645 5651 5655 5659 5663 5665 5667 5669 5671 5671 5670 5671 5672 5673 5674 5675 5676 5678
5634 5627 5621 5615 5610 5605 5600 5595 5591 5586 5582 5578 5574 5571 5568 5567 5566 5567 5569 5573 5578 5586 5596 5607 5617 5627 5634 5640 5645 5650 5653 5657 5659 5661 5662 5663 5664 5666 5667 5669 5670 5672 5674
5622 5617 5611 5605 5599 5593 5588 5583 5578 5574 5570 5566 5562 5560 5557 5555 5553 5553 5553 5554 5557 5563 5572 5583 5596 5608 5617 5624 5630 5636 5641 5646 5649 5651 5653 5655 5657 5659 5661 5663 5665 5668 5670
5614 5608 5601 5595 5587 5580 5574 5568 5563 5558 5553 5550 5547 5546 5545 5544 5543 5542 5542 5541 5542 5546 5553 5563 5576 5589 5600 5608 5615 5623 5629 5635 5639 5642 5645 5647 5650 5652 5655 5657 5660 5663 5666
5604 5596 5588 5581 5574 5566 5558 5552 5546 5540 5535 5531 5529 5529 5530 5531 5531 5532 5531 5532 5532 5534 5539 5547 5558 5570 5583 5593 5601 5609 5617 5623 5629 5633 5637 5640 5643 5646 5649 5652 5655 5658 5662
5592 5583 5575 5566 5559 5550 5542 5534 5527 5520 5515 5511 5509 5509 5512 5515 5518 5521 5522 5523 5525 5527 5531 5537 5546 5556 5566 5577 5588 5597 5606 5613 5619 5625 5629 5633 5637 5640 5643 5646 5650 5654 5658
5580 5570 5560 5551 5542 5533 5524 5516 5507 5500 5494 5490 5487 5489 5493 5498 5504 5509 5512 5515 5518 5521 5525 5531 5538 5546 5556 5568 5578 5588 5597 5604 5611 5617 5622 5627 5631 5635 5639 5642 5646 5651 5656
5567 5556 5545 5535 5525 5515 5506 5497 5489 5481 5474 5470 5468 5469 5474 5481 5488 5496 5502 5506 5511 5515 5520 5526 5533 5542 5551 5561 5572 5581 5589 5596 5604 5610 5616 5622 5627 5632 5636 5640 5645 5650 5654